SCP
0 0 0 0 0 0 0 0 0 0 0 0 0 0 0 0 0 0 0 0 0 0
0 0 0 0 0 0 0 0 0 0 0 0 0 0 0 0 0 0 0 0 0 0
0 0 0 0 0 0 0 0 0 0 0 0 0 0 0 0 0 0 0 0 0 0
0 0 0 0 0 0 0 0 0 0 0 0 0 0 0 0 0 0 0 0 0 0
0 0 0 0 0 0 0 0 0 0 0 0 0 0 0 0 0 0 0 0 0 0
0 0 0 0 0 0 0 0 0 0 0 0 0 0 0 0 0 0 0 0 0 0
0 0 0 0 0 0 0 0 0 0 0 0 0 0 0 0 0 0 0 0 0 0
0 0 0 0 0 0 0 0 0 0 0 0 0 0 0 0 0 0 0 0 0 0
0 0 0 0 0 0 0 0 0 0 0 0 0 0 0 0 0 0 0 0 0 0
0 0 0 0 0 0 0 0 0 0 0 0 0 0 0 0 0 0 0 0 0 0
0 0 0 0 0 0 0 0 0 0 0 0 0 0 0 0 0 0 0 0 0 0
0 0 0 0 0 0 0 0 0 0 0 0 0 0 0 0 0 0 0 0 0 0
0 0 0 0 0 0 0 0 0 0 0 0 0 0 0 0 0 0 0 0 0 0
0 0 0 0 0 0 0 0 0 0 0 0 0 0 0 0 0 0 0 0 0 0
Wind_Speed_500mb
43 57 46 41 35 39 44 75 82 87 87 92 86 86 79 78 77 72 75 74 77 80
31 39 45 45 43 47 56 38 62 76 70 84 90 86 77 80 87 77 75 76 77 79
33 30 36 43 40 42 45 46 49 44 51 64 73 70 71 80 83 81 77 73 74 81
22 19 18 18 22 25 25 32 39 48 55 73 89 78 71 78 83 84 79 77 70 69
22 17 13 9 5 4 2 2 8 17 24 25 20 37 54 51 45 40 47 42 39 32
40 34 30 27 23 19 19 18 15 10 7 5 10 13 12 12 8 11 21 28 33 40
56 53 50 47 45 42 42 41 40 40 44 43 42 36 39 39 40 42 42 37 34 31
52 48 43 41 39 36 36 40 40 42 41 41 42 44 37 33 28 22 16 19 20 12
48 45 44 44 43 40 41 40 34 33 30 27 22 17 14 15 18 23 20 16 19 20
44 41 39 35 30 31 31 29 29 27 26 28 29 27 27 25 24 24 24 21 18 16
48 46 42 40 37 38 36 36 35 34 31 30 36 31 29 25 22 21 21 20 19 17
43 43 42 40 37 35 31 31 30 29 28 27 31 28 24 21 20 18 16 15 15 14
41 41 40 38 37 35 32 32 29 26 27 27 25 23 20 18 16 13 13 12 10 9
41 40 40 36 34 32 29 27 24 23 22 19 18 15 13 11 9 9 8 7 7 5
Wind_Direction_500mb
217 216 232 211 218 250 261 258 255 244 247 251 251 243 241 246 246 244 243 243 244 247
231 212 222 232 240 247 247 259 227 244 252 244 248 246 250 245 247 245 244 245 249 252
199 208 213 233 236 242 250 254 249 242 251 250 241 243 241 245 250 249 241 245 250 253
187 194 211 225 238 244 252 255 254 250 251 245 238 231 237 231 233 233 244 238 245 248
139 139 144 150 159 107 75 335 277 243 236 236 244 244 233 240 233 228 217 231 244 226
107 107 103 99 96 102 100 97 98 94 107 123 166 158 159 162 170 180 162 139 130 116
99 95 92 89 88 85 87 88 92 92 91 92 96 88 90 94 108 107 105 107 109 114
92 92 90 88 86 83 84 84 86 89 91 91 94 89 88 88 87 85 85 100 100 96
93 92 90 89 90 90 89 88 85 84 84 85 83 92 105 118 124 127 120 128 135 132
90 91 91 90 93 97 97 97 97 101 106 107 102 99 96 90 94 99 106 111 108 111
84 87 88 89 85 84 85 86 87 86 86 93 93 88 85 86 91 96 101 105 106 106
79 82 84 86 87 83 85 87 88 87 85 81 83 79 77 72 73 79 85 87 86 86
73 78 78 78 79 78 77 77 79 81 79 78 79 77 74 73 70 64 68 70 74 75
60 59 61 61 62 64 66 68 72 75 78 80 78 80 74 69 63 57 44 36 30 22
Wind_Speed_850mb
43 57 46 41 35 39 44 75 82 87 87 92 86 86 79 78 77 72 75 74 77 80
31 39 45 45 43 47 56 38 62 76 70 84 90 86 77 80 87 77 75 76 77 79
33 30 36 43 40 42 45 46 49 44 51 64 73 70 71 80 83 81 77 73 74 81
22 19 18 18 22 25 25 32 39 48 55 73 89 78 71 78 83 84 79 77 70 69
22 17 13 9 5 4 2 2 8 17 24 25 20 37 54 51 45 40 47 42 39 32
40 34 30 27 23 19 19 18 15 10 7 5 10 13 12 12 8 11 21 28 33 40
56 53 50 47 45 42 42 41 40 40 44 43 42 36 39 39 40 42 42 37 34 31
52 48 43 41 39 36 36 40 40 42 41 41 42 44 37 33 28 22 16 19 20 12
48 45 44 44 43 40 41 40 34 33 30 27 22 17 14 15 18 23 20 16 19 20
44 41 39 35 30 31 31 29 29 27 26 28 29 27 27 25 24 24 24 21 18 16
48 46 42 40 37 38 36 36 35 34 31 30 36 31 29 25 22 21 21 20 19 17
43 43 42 40 37 35 31 31 30 29 28 27 31 28 24 21 20 18 16 15 15 14
41 41 40 38 37 35 32 32 29 26 27 27 25 23 20 18 16 13 13 12 10 9
41 40 40 36 34 32 29 27 24 23 22 19 18 15 13 11 9 9 8 7 7 5
Wind_Direction_850mb
217 216 232 211 218 250 261 258 255 244 247 251 251 243 241 246 246 244 243 243 244 247
231 212 222 232 240 247 247 259 227 244 252 244 248 246 250 245 247 245 244 245 249 252
199 208 213 233 236 242 250 254 249 242 251 250 241 243 241 245 250 249 241 245 250 253
187 194 211 225 238 244 252 255 254 250 251 245 238 231 237 231 233 233 244 238 245 248
139 139 144 150 159 107 75 335 277 243 236 236 244 244 233 240 233 228 217 231 244 226
107 107 103 99 96 102 100 97 98 94 107 123 166 158 159 162 170 180 162 139 130 116
99 95 92 89 88 85 87 88 92 92 91 92 96 88 90 94 108 107 105 107 109 114
92 92 90 88 86 83 84 84 86 89 91 91 94 89 88 88 87 85 85 100 100 96
93 92 90 89 90 90 89 88 85 84 84 85 83 92 105 118 124 127 120 128 135 132
90 91 91 90 93 97 97 97 97 101 106 107 102 99 96 90 94 99 106 111 108 111
84 87 88 89 85 84 85 86 87 86 86 93 93 88 85 86 91 96 101 105 106 106
79 82 84 86 87 83 85 87 88 87 85 81 83 79 77 72 73 79 85 87 86 86
73 78 78 78 79 78 77 77 79 81 79 78 79 77 74 73 70 64 68 70 74 75
60 59 61 61 62 64 66 68 72 75 78 80 78 80 74 69 63 57 44 36 30 22